Погода в Аннаполисе

США     38°58′41″N   76°29′34″W
В апреле 2022 года жителям России запретили посещать сайт meteo.paraplan.net по решению Генеральной прокуратуры. Аудитория сайта уменьшилась в 10 раз. Владельцы сайта не видят смысла в поддержке погодного сервера в таких условиях. Сайт будет закрыт в октябре.
темп.,
°C
ветер,
м/с
пор.,
м/с
влажн.,
%
обл.,
%
осадки,
мм/ч
давл.,
гПа
погр.,
м
4 октября, вт
вт423:00+10ссв81483100 1.7 1021788
02:00+9с91487100 3.6 1019773
05:00+9с91387100 2.9 1018760
08:00+9с81389100 4.3 1017749
11:00+10с81294100 3.9 1017720
14:00+10с81294100 7.3 1015638
17:00+11ссз81394100 2.9 1014639
20:00+11ссз71393100 6.1 1014645
5 октября, ср
ср523:00+11ссз81291100 1.8 1014733
02:00+11ссз71293100 3.1 1013651
05:00+12ссз61193100 1.2 1013608
08:00+12ссз61092100 1.9 1013564
11:00+13ссз61092100 0.5 1015585
14:00+15ссз61087100 1.3 1015722
17:00+16ссз588199 0.1 1015784
20:00+15ссз487472 0.1 1016314
6 октября, чт
чт623:00+14ссз237616 0.0 101693
02:00+13сз23763 0.0 101672
05:00+12зсз23735 0.0 101673
08:00+12зсз347020 0.0 1017105
11:00+18зсз125085 0.0 1017406
14:00+21юз1344100 0.0 1016742
17:00+21ююз2456100 0.0 1015508
20:00+17зюз22675 0.0 101615
7 октября, пт
пт723:00+16юз34685 0.0 101669
02:00+15з34700 0.0 101676
05:00+15з23685 0.0 101562
08:00+14зюз34665 0.0 1015107
11:00+20зюз35545 0.0 1015392
14:00+24з46445 0.0 10141059
17:00+20сз7106196 0.1 1015710
20:00+14ссз7126395 0.2 1019799
8 октября, сб
сб823:00+12ссз710630 0.0 1021910
02:00+10сз59604 0.0 1023769
05:00+9сз510590 0.0 1024690
08:00+8сз47590 0.0 1025552
11:00+12сз57423 0.0 10261498
14:00+15сз57361 0.0 10231734
17:00+15зсз47410 0.0 10221690
20:00+12з23490 0.0 1022179